AO-07 1 07530U 74089B 18206.87089887 -.00000048 +00000-0 -22079-4 0 9993 2 07530 101.6897 173.6164 0011646 260.9044 126.6083 12.53633530999217 UO-11 1 14781U 84021B 18206.66160416 +.00000057 +00000-0 +13189-4 0 9991 2 14781 097.6465 241.2310 0007502 325.7024 034.3705 14.83019391829145 LO-19 1 20442U 90005G 18206.89755471 -.00000019 +00000-0 +92624-5 0 9998 2 20442 098.6111 145.1544 0012584 040.4850 319.7268 14.32900786489372 HUBBLE 1 20580U 90037B 18206.48223740 +.00000355 +00000-0 +10695-4 0 9999 2 20580 028.4682 221.9511 0002670 186.7710 299.0453 15.09068938351171 MET-2/21 1 22782U 93055A 18206.70433201 -.00000004 +00000-0 -17374-4 0 9992 2 22782 082.5472 063.3652 0022781 021.9217 054.8982 13.83811250257235 AO-27 1 22825U 93061C 18206.91298080 -.00000001 +00000-0 +17482-4 0 9990 2 22825 098.8652 183.7364 0007494 229.1865 130.8667 14.30035405294830 IO-26 1 22826U 93061D 18206.92083582 -.00000020 +00000-0 +10126-4 0 9990 2 22826 098.8592 183.7774 0008151 218.0066 142.0541 14.30367026295047 FO-29 1 24278U 96046B 18206.60699927 -.00000002 +00000-0 +33382-4 0 9999 2 24278 098.5160 040.0640 0350618 011.4200 349.4641 13.53084475083180 NOAA-15 1 25338U 98030A 18206.78641847 +.00000063 +00000-0 +45089-4 0 9992 2 25338 098.7680 223.2424 0011610 113.1287 247.1117 14.25867646050267 GO-32 1 25397U 98043D 18206.89741967 -.00000027 +00000-0 +71841-5 0 9994 2 25397 098.6510 146.6990 0000112 280.6559 079.4607 14.23648748041017 ISS 1 25544U 98067A 18206.91640484 +.00001372 +00000-0 +28092-4 0 9991 2 25544 051.6401 185.6725 0004180 359.9147 022.3664 15.54012800124549 NO-44 1 26931U 01043C 18206.87858608 -.00000062 +00000-0 +81284-5 0 9993 2 26931 067.0516 129.5739 0007936 268.8766 091.1426 14.30511656878011 SO-50 1 27607U 02058C 18206.77831187 -.00000055 +00000-0 +13022-4 0 9999 2 27607 064.5562 332.0708 0069176 320.0576 039.5448 14.75466422838527 CO-55 1 27844U 03031E 18206.44369742 +.00000048 +00000-0 +41312-4 0 9995 2 27844 098.6862 214.5351 0008547 260.0146 100.0067 14.22124440781598 CO-57 1 27848U 03031J 18206.48406709 +.00000037 +00000-0 +36604-4 0 9994 2 27848 098.6947 214.9857 0008452 271.8744 088.1466 14.21727339781505 RS-22 1 27939U 03042A 18206.93259410 +.00000027 +00000-0 +13449-4 0 9993 2 27939 097.9957 345.0773 0013589 031.5810 066.6481 14.66702491792358 NOAA-18 1 28654U 05018A 18206.85669131 -.00000024 +00000-0 +12185-4 0 9993 2 28654 099.1422 243.0910 0014650 023.4439 336.7397 14.12381055679149 CO-58 1 28895U 05043F 18206.83557918 +.00000097 +00000-0 +27388-4 0 9995 2 28895 097.9138 356.7358 0015649 310.4196 049.5641 14.63565021679292 Falconsat-3 1 30776U 07006E 18206.84897538 +.00002141 +00000-0 +63701-4 0 9994 2 30776 035.4370 020.5957 0002975 359.8316 000.2409 15.34686776630268 CO-65 1 32785U 08021C 18206.77773621 +.00000180 +00000-0 +25123-4 0 9999 2 32785 097.5464 217.1130 0011485 270.8479 089.1422 14.88149679554842 AAUSAT2 1 32788U 08021F 18206.52270455 +.00000091 +00000-0 +13536-4 0 9998 2 32788 097.5197 231.4284 0010923 213.6631 146.3898 14.94397903555901 DO-64 1 32789U 08021G 18206.71186519 +.00001186 +00000-0 +85025-4 0 9995 2 32789 097.5090 260.5420 0013067 159.9246 200.2498 15.06175374557587 CO-66 1 32791U 08021J 18206.46769498 +.00000354 +00000-0 +41490-4 0 9997 2 32791 097.5349 222.2616 0011916 248.5280 111.4668 14.90592103555139 RS-30 1 32953U 08025A 18206.83279174 +.00000008 +00000-0 -18231-4 0 9993 2 32953 082.5047 348.6405 0020045 124.8331 235.4638 12.43084556461575 PRISM 1 33493U 09002B 18197.72677445 -.00000067 00000-0 -26685-6 0 9999 2 33493 98.1276 100.9510 0014213 217.7281 142.2982 14.96259108514768 NOAA-19 1 33591U 09005A 18206.89297487 +.00000064 +00000-0 +60162-4 0 9995 2 33591 099.1442 185.6937 0013279 214.8618 145.1684 14.12295566487372 TISAT-1 1 36799U 10035E 18206.84321389 +.00000252 +00000-0 +31638-4 0 9992 2 36799 098.1114 344.0950 0013785 083.1850 277.0935 14.90840351435712 JUGNU 1 37839U 11058B 18206.29300346 +.00000298 +00000-0 +17169-4 0 9996 2 37839 019.9605 166.1815 0018761 307.0894 203.5260 14.12624303350657 SRMSAT 1 37841U 11058D 18206.43720733 +.00000300 +00000-0 +19807-4 0 9996 2 37841 019.9707 215.3021 0011761 189.8271 321.2707 14.10610564350192 AO-71 1 37854U 11061E 18206.69273345 +.00000521 +00000-0 +35399-4 0 9993 2 37854 101.7019 291.3748 0163117 319.3200 039.5920 15.05562095367179 HRBE 1 37855U 11061F 18206.44637801 +.00000740 +00000-0 +45864-4 0 9999 2 37855 101.7147 288.5473 0176101 329.0340 030.0580 15.04549062366934 ALMASAT-1 1 38078U 12006B 18206.85383859 +.00034265 +40252-5 +29123-3 0 9999 2 38078 069.4313 109.5876 0230063 047.1598 356.5555 15.42900625346616 HORYU-2 1 38340U 12025D 18206.52319072 +.00000148 +00000-0 +29779-4 0 9995 2 38340 098.3644 229.5560 0012973 089.4409 270.8286 14.75578422322352 RS-40 1 38735U 12041C 18206.92328711 +.00000030 +00000-0 +14382-3 0 9998 2 38735 082.4748 072.4675 0015996 228.5248 131.4459 12.42576944271813 BEESAT-3 1 39134U 13015E 18206.90653617 +.00001113 +00000-0 +61947-4 0 9991 2 39134 064.8640 001.6478 0007076 217.4321 142.6314 15.19274518290405 BEESAT-2 1 39136U 13015G 18206.90972981 +.00000771 +00000-0 +49684-4 0 9994 2 39136 064.8696 018.3904 0018101 233.3660 126.5802 15.16226003290070 ZACUBE-1 1 39417U 13066B 18206.62449167 +.00000149 +00000-0 +25232-4 0 9998 2 39417 097.5850 233.2061 0059873 030.7082 329.7613 14.80957048252487 TRITON-1 1 39427U 13066M 18206.95647817 +.00000158 +00000-0 +32958-4 0 9990 2 39427 097.6429 200.3203 0115133 134.5925 226.4747 14.67690507250078 GOMX-1 1 39430U 13066Q 18206.91233122 +.00000133 +00000-0 +33336-4 0 9994 2 39430 097.7000 181.0050 0150683 207.8334 151.4747 14.59101609248615 LO-74 1 39440U 13066AA 18206.58710143 +.00000181 +00000-0 +32098-4 0 9998 2 39440 097.6004 219.5405 0082008 071.2207 289.7878 14.75695687250386 AO-73 1 39444U 13066AE 18206.53257539 +.00000227 +00000-0 +34406-4 0 9998 2 39444 097.5857 234.6927 0058866 026.2901 334.1280 14.81744045251336 SPROUT 1 39770U 14029E 18206.88509221 +.00000582 +00000-0 +71269-4 0 9998 2 39770 097.8778 307.6133 0010373 082.7167 277.5217 14.86908064226111 DUCHIFAT-1 1 40021U 14033M 18206.73142575 +.00000370 +00000-0 +43899-4 0 9996 2 40021 097.9147 125.5194 0014293 054.8595 305.3959 14.90345327222691 NANOSATCBR1 1 40024U 14033Q 18206.72446147 +.00000321 +00000-0 +39561-4 0 9997 2 40024 097.9079 123.6786 0013600 057.3175 302.9352 14.89603455222616 EO-79 1 40025U 14033R 18206.72742684 +.00000219 +00000-0 +29370-4 0 9996 2 40025 097.9035 122.0453 0013852 061.4366 298.8243 14.88742752222019 DTUSAT-2 1 40030U 14033W 18206.70258789 +.00000205 +00000-0 +28206-4 0 9990 2 40030 097.8980 120.6661 0013292 057.2170 303.0325 14.88349200221955 EO-80 1 40032U 14033Y 18206.82936804 +.00000205 +00000-0 +28174-4 0 9990 2 40032 097.8987 120.7951 0013232 057.4151 302.8341 14.88286989221951 ANTELSAT 1 40034U 14033AA 18206.89982999 +.00000159 +00000-0 +31045-4 0 9994 2 40034 097.8061 082.1106 0060358 073.6834 287.1002 14.73946245219855 VELOX-1 1 40057U 14034E 18206.77680964 +.00000256 +00000-0 +43601-4 0 9993 2 40057 098.2071 318.4992 0010373 198.6870 161.3956 14.77456811219348 DAURIA DX 1 1 40071U 14037C 18206.79037849 +.00000071 +00000-0 +16612-4 0 9999 2 40071 098.3809 339.8844 0008153 189.5983 170.5080 14.81174388218715 UKUBE-1 1 40074U 14037F 18206.85890060 +.00000282 +00000-0 +41129-4 0 9996 2 40074 098.3913 346.0808 0004313 179.7981 180.3210 14.83831053219038 HODOYOSHI-1 1 40299U 14070B 18206.89410848 +.00000498 +00000-0 +24150-4 0 9992 2 40299 097.3769 287.9834 0014633 111.8512 338.9076 15.22957042206375 CHUBUSAT-1 1 40300U 14070C 18206.83217625 +.00000630 +00000-0 +30779-4 0 9999 2 40300 097.3611 283.6997 0021138 124.3049 009.1598 15.21633867206156 QSAT-EOS 1 40301U 14070D 18206.78609390 +.00001550 +00000-0 +64562-4 0 9997 2 40301 097.3578 285.1082 0027839 114.7935 033.6762 15.24885060206301 FIREBIRD FU3 1 40377U 15003B 18206.69974910 +.00001798 +00000-0 +76382-4 0 9997 2 40377 099.0834 116.0786 0131982 102.4543 259.1490 15.17353624192153 FIREBIRD FU4 1 40378U 15003C 18206.68837187 +.00001792 +00000-0 +76064-4 0 9992 2 40378 099.0837 116.1247 0132204 102.3759 259.2303 15.17362421192166 GRIFEX 1 40379U 15003D 18206.79709116 +.00001217 +00000-0 +56753-4 0 9990 2 40379 099.0859 112.2066 0139106 115.1545 246.4185 15.14433788191932 NO-84 1 40654U 15025D 18206.38082188 +.00005310 +00000-0 +89769-4 0 03634 2 40654 054.9906 223.6717 0154226 205.4683 153.8621 15.41363546061731 NO-83 1 40655U 15025E 18206.36316452 +.00011378 +00000-0 +11974-3 0 04204 2 40655 054.9721 162.2919 0099555 242.3940 116.6922 15.58909703062234 DEORBITSAIL 1 40719U 15032E 18206.67812905 +.00000311 +00000-0 +51981-4 0 9990 2 40719 097.9408 099.5611 0015040 286.6062 073.3496 14.76473299163858 NUDT-PHONESAT 1 40900U 15049B 18206.91253481 +.00001654 +00000-0 +76585-4 0 9993 2 40900 097.4406 214.7202 0011648 251.5775 108.4195 15.21479730157803 XW-2A 1 40903U 15049E 18206.95365319 +.00001521 +00000-0 +39364-4 0 9991 2 40903 097.3814 242.1916 0012436 247.6272 112.3657 15.40645421159777 XW-2C 1 40906U 15049H 18206.95095664 +.00000481 +00000-0 +29067-4 0 9990 2 40906 097.4600 209.7336 0013362 254.0041 105.9720 15.15247607157362 XW-2D 1 40907U 15049J 18206.96552636 +.00000521 +00000-0 +31048-4 0 9996 2 40907 097.4575 209.4406 0012739 251.3237 108.6613 15.15402863157372 LILACSAT-2 1 40908U 15049K 18206.95328007 +.00000296 +00000-0 +20140-4 0 9999 2 40908 097.4687 208.7368 0014402 254.1199 105.8445 15.13545960157234 XW-2F 1 40910U 15049M 18206.94923893 +.00000786 +00000-0 +43573-4 0 9994 2 40910 097.4574 210.8102 0013460 246.2240 113.7581 15.16622776157451 XW-2B 1 40911U 15049N 18206.85241497 +.00000529 +00000-0 +31527-4 0 9999 2 40911 097.4609 209.8816 0012647 252.4370 107.5481 15.15345363157251 DCBB 1 40912U 15049P 18206.95795649 +.00000937 +00000-0 +48197-4 0 9998 2 40912 097.4501 213.7384 0013877 231.8124 213.6279 15.18850997157555 TW-1C 1 40926U 15051B 18206.89187691 +.00007322 +00000-0 +13375-3 0 9995 2 40926 097.1797 249.0615 0011205 126.6266 319.7906 15.49630509159303 TW-1A 1 40928U 15051D 18206.90337185 +.00002035 +00000-0 +54880-4 0 9997 2 40928 097.1827 240.1254 0011778 172.3482 310.7491 15.38890709158737 IO-86 1 40931U 15052B 18206.69384054 +.00000727 +00000-0 +12207-4 0 9998 2 40931 005.9988 235.5361 0013564 195.5576 164.4001 14.76580740152703 LQSat 1 40958U 15057A 18206.88441999 -.00000006 +00000-0 +68397-5 0 9998 2 40958 097.9383 279.1711 0017333 209.3838 150.6383 14.73039170150552 AO-85 1 40967U 15058D 18206.28491157 +.00000030 +00000-0 +21501-4 0 03999 2 40967 064.7774 075.6099 0210215 302.0465 056.0369 14.75748410059273 ATHENOXAT-1 1 41168U 15077C 18206.78799218 +.00001699 +00000-0 +55989-4 0 9993 2 41168 014.9834 097.7465 0011977 214.9063 193.1108 15.12865304144231 ChubuSat-2 1 41338U 16012B 18206.90981173 +.00000282 +00000-0 +15351-4 0 9995 2 41338 031.0040 067.6217 0013662 096.9831 263.2359 15.00001436133650 ChubuSat-3 1 41339U 16012C 18206.78567595 +.00000259 +00000-0 +13444-4 0 9995 2 41339 031.0122 066.9519 0013396 102.7775 257.4371 15.00187365133628 Horyu-4 1 41340U 16012D 18206.88993913 +.00000428 +00000-0 +26029-4 0 9996 2 41340 031.0060 060.6664 0013882 117.6839 242.5206 15.01018627133716 OUFTI-1 1 41458U 16025C 18206.74054765 +.00000676 +00000-0 +39289-4 0 9995 2 41458 098.1338 271.6458 0170033 018.8921 341.8495 15.04800753123230 e-st@r-II 1 41459U 16025D 18206.75445460 +.00000969 +00000-0 +54477-4 0 9994 2 41459 098.1346 271.4860 0171159 019.7965 340.9775 15.04530109123228 AAUSAT4 1 41460U 16025E 18206.62915868 +.00001889 +00000-0 +10060-3 0 9997 2 41460 098.1286 271.9166 0162186 015.8616 344.7583 15.06017881123270 LO-87 1 41557U 16033B 18206.81034608 +.00001058 +00000-0 +41687-4 0 9996 2 41557 097.4367 290.9484 0014766 027.9949 332.2081 15.27761960120051 NuSat2 1 41558U 16033C 18206.80451634 +.00001093 +00000-0 +42325-4 0 9997 2 41558 097.4389 291.0748 0013801 026.8358 333.3592 15.28293758120046 Lapan A3 1 41603U 16040E 18206.93195867 +.00000010 +00000-0 +36756-5 0 9993 2 41603 097.4096 267.7470 0015155 103.7113 015.6404 15.19584351115961 Swayam 1 41607U 16040J 18206.64098644 +.00001338 +00000-0 +60894-4 0 9993 2 41607 097.4107 269.0902 0015494 102.6984 257.5985 15.22346509115958 Pratham 1 41783U 16059A 18206.84978893 +.00000032 +00000-0 +15641-4 0 9993 2 41783 098.1149 267.7792 0032950 336.4602 023.5090 14.62933598097612 AlSat 1N 1 41789U 16059G 18206.91127443 +.00000031 +00000-0 +15130-4 0 9996 2 41789 098.1161 269.1416 0027764 328.3351 031.6161 14.64167653097688 ScatSat 1 41790U 16059H 18206.72640939 +.00000010 +00000-0 +13792-4 0 9996 2 41790 098.2568 253.8110 0017737 337.4876 022.5539 14.50862672096770 TY-1 1 41844U 16066D 18206.83532672 +.00001142 +00000-0 +50957-4 0 9991 2 41844 097.4053 213.2880 0013788 261.5086 221.1807 15.23363454094763 Pegasus-1 1 41846U 16066F 18206.89349891 +.00000262 +00000-0 +49466-4 0 9993 2 41846 098.7517 236.1423 0369172 131.9739 231.3528 14.37367656089463 CAS-2T 1 41847U 16066G 18206.66306615 +.00000060 +00000-0 +18822-4 0 9994 2 41847 098.7476 236.3670 0367152 130.0803 233.3191 14.37908024089853 TO-89 1 41932U 98067KU 18206.88079470 +.00034127 +00000-0 +19222-3 0 9995 2 41932 051.6309 141.0559 0003579 023.6680 336.4485 15.78854549086877 AOBA-V3LOX3 1 41935U 98067KX 18206.84550962 +.00052855 +00000-0 +23035-3 0 9999 2 41935 051.6337 135.5022 0003015 038.2722 321.8495 15.84208066087041 EO-88 1 42017U 17008BX 18206.75662019 +.00001265 +00000-0 +54301-4 0 9994 2 42017 097.4458 271.5822 0004990 235.2399 124.8369 15.24555687079945 HAVELSAT 1 42700U 98067LH 18206.85716033 +.00026168 +00000-0 +18993-3 0 9999 2 42700 051.6332 156.7132 0004723 047.8038 312.3361 15.73195890068108 SOMP2 1 42701U 98067LJ 18206.87147775 +.00024875 +00000-0 +18980-3 0 9992 2 42701 051.6342 158.3190 0004677 046.1372 314.0012 15.72045327068079 PHOENIX 1 42706U 98067LP 18206.87275704 +.00019930 +00000-0 +16247-3 0 9991 2 42706 051.6342 159.0899 0001565 027.0972 333.0107 15.70623857067988 X-CubeSat 1 42707U 98067LQ 18206.88578243 +.00029909 +00000-0 +20964-3 0 9995 2 42707 051.6301 156.0716 0001881 037.7881 322.3250 15.73943315068019 qbee 1 42708U 98067LR 18206.85576693 +.00027969 +00000-0 +20497-3 0 9995 2 42708 051.6344 157.4545 0001817 041.5090 318.6046 15.72937261067951 ZA-AeroSat 1 42713U 98067LU 18206.87126153 +.00017716 +00000-0 +15364-3 0 9991 2 42713 051.6335 162.0692 0001906 356.8805 003.2180 15.69213975067600 LINK 1 42714U 98067LV 18206.89481773 +.00088080 +00000-0 +34584-3 0 9993 2 42714 051.6224 146.1778 0001979 062.6367 297.4838 15.86181380067926 UPSat 1 42716U 98067LX 18206.88450141 +.00048427 +00000-0 +26450-3 0 9993 2 42716 051.6305 150.8022 0003701 054.8709 305.2638 15.79370884067882 SpaceCube 1 42717U 98067LY 18206.88478947 +.00026607 +00000-0 +19639-3 0 9995 2 42717 051.6318 157.6136 0003662 050.0863 310.0457 15.72794051067032 Hoopoe 1 42718U 98067LZ 18206.39969597 +.00045042 +00000-0 +28448-3 0 9990 2 42718 051.6294 156.6147 0003662 046.3194 313.8109 15.76138583067000 Challenger 1 42721U 98067MA 18206.92413565 +.00318737 +55042-4 +55027-3 0 9999 2 42721 051.6226 138.0159 0002042 117.9937 242.1281 16.01811995066993 NJUST-1 1 42722U 98067MB 18206.89275043 +.00017853 +00000-0 +16124-3 0 9993 2 42722 051.6344 163.7410 0005750 027.3664 332.7635 15.68197716066652 UNSW-EC0 1 42723U 98067MC 18206.88609826 +.00041997 +00000-0 +25321-3 0 9998 2 42723 051.6375 153.9133 0005216 042.0320 318.1080 15.77217062066761 DUTHsat 1 42724U 98067MD 18206.85846226 +.00172851 +22767-4 +44328-3 0 9993 2 42724 051.6280 141.4625 0003428 080.4309 279.7086 15.94917090066867 LO-90 1 42725U 98067ME 18206.93189330 +.00023649 +00000-0 +18785-3 0 9999 2 42725 051.6344 160.2373 0004810 033.0606 327.0692 15.71117594066628 nSIGHT1 1 42726U 98067MF 18206.89699114 +.00007442 +00000-0 +89144-4 0 9992 2 42726 051.6372 172.1031 0005607 025.5639 334.5631 15.62091881066457 SNUSAT 1B 1 42727U 98067MG 18206.75356581 +.00025878 +00000-0 +20532-3 0 9994 2 42727 051.6326 161.2350 0005489 357.7339 002.3633 15.71082350066548 QBITO 1 42728U 98067MH 18206.90146759 +.00028415 +00000-0 +20583-3 0 9992 2 42728 051.6368 157.8345 0003225 043.7993 316.3261 15.73198682066446 Aalto-2 1 42729U 98067MJ 18206.87350070 +.00030390 +00000-0 +21674-3 0 9999 2 42729 051.6339 157.5727 0003217 044.7402 315.3856 15.73525295066457 SUSat 1 42730U 98067MK 18206.90620399 +.00025821 +00000-0 +19972-3 0 9990 2 42730 051.6338 159.2953 0003231 040.3330 319.7907 15.71703528066434 i-INSPIRE II 1 42731U 98067ML 18206.86392578 +.00047307 +00000-0 +27617-3 0 9999 2 42731 051.6346 152.9270 0003710 359.6289 000.4708 15.77897668066558 PolyITAN-2-SAU 1 42732U 98067MM 18206.89641774 +.00028468 +00000-0 +20159-3 0 9999 2 42732 051.6329 156.9417 0004474 351.0457 009.0461 15.73724413066507 ExAlta-1 1 42734U 98067MP 18206.95243516 +.00049448 +00000-0 +27538-3 0 9999 2 42734 051.6271 151.9538 0005434 025.9528 334.1744 15.78920289066529 Aoxiang-1 1 42735U 98067MQ 18206.91345919 +.00018328 +00000-0 +16300-3 0 9994 2 42735 051.6334 163.1015 0006060 024.5331 335.5953 15.68553885067798 BeEagleSat 1 42736U 98067MR 18206.86739025 +.00021549 +00000-0 +17775-3 0 9990 2 42736 051.6334 161.2775 0005770 026.5184 333.6108 15.70267539066506 CAS-4B 1 42759U 17034B 18206.91269200 +.00000087 +00000-0 +18953-4 0 9993 2 42759 043.0190 230.6687 0010212 342.9354 081.8302 15.09328983061304 CAS-4A 1 42761U 17034D 18206.81123843 -.00000061 +00000-0 +98541-5 0 9992 2 42761 043.0191 230.9718 0010544 343.9839 358.9477 15.09403898061279 UCLSat 1 42765U 17036A 18206.86968487 +.00000987 +00000-0 +46322-4 0 9999 2 42765 097.3982 266.0913 0010319 305.9841 054.0438 15.21942367061185 NIUSat 1 42766U 17036B 18206.76575543 +.00000773 +00000-0 +38482-4 0 9997 2 42766 097.3983 265.1805 0014324 291.3855 068.5852 15.20467790060393 LituanicaSAT 2 1 42768U 17036D 18206.87262276 +.00001579 +00000-0 +73077-4 0 9991 2 42768 097.3999 265.6768 0014008 293.1664 066.8096 15.21517002060442 Aalto 1 1 42775U 17036L 18206.72207466 +.00000620 +00000-0 +31185-4 0 9993 2 42775 097.3975 265.3668 0012597 292.3404 067.6496 15.20810342060359 URSA MAIOR 1 42776U 17036M 18206.70659502 +.00000710 +00000-0 +35187-4 0 9990 2 42776 097.3982 265.4106 0012437 292.6219 067.3700 15.20894703060354 Max Valier Sat 1 42778U 17036P 18206.72369683 +.00000797 +00000-0 +38579-4 0 9995 2 42778 097.4007 265.7927 0011008 298.4370 061.5756 15.21386216060368 Pegasus 1 42784U 17036V 18206.91200287 +.00000924 +00000-0 +43782-4 0 9991 2 42784 097.3985 266.0493 0010855 305.5685 054.4539 15.21748281060408 NUDATSat 1 42787U 17036Y 18206.88092004 +.00001388 +00000-0 +63120-4 0 9999 2 42787 097.3993 266.2582 0010348 305.2323 054.7944 15.22361192060253 SUCHAI 1 1 42788U 17036Z 18206.86224321 +.00001101 +00000-0 +51183-4 0 9996 2 42788 097.3986 266.1152 0010454 305.7453 054.2811 15.22031247060472 SKCUBE 1 42789U 17036AA 18206.86269942 +.00001032 +00000-0 +48242-4 0 9990 2 42789 097.3984 266.1069 0010297 305.7983 054.2295 15.21987477060392 VZLUSAT 1 1 42790U 17036AB 18206.80399345 +.00001350 +00000-0 +61470-4 0 9998 2 42790 097.3990 266.1898 0009919 306.2195 053.8124 15.22378914060398 VENTA 1 1 42791U 17036AC 18206.71150201 +.00000974 +00000-0 +45617-4 0 9991 2 42791 097.3984 266.0003 0009960 307.2915 052.7412 15.22033839060365 Robusta 1B 1 42792U 17036AD 18206.76196934 +.00001106 +00000-0 +51253-4 0 9991 2 42792 097.3983 266.0780 0009891 307.5056 052.5280 15.22134388060394 D-SAT 1 42794U 17036AF 18206.70266159 +.00000419 +00000-0 +41796-4 0 9991 2 42794 097.5885 259.8998 0127781 153.4875 207.2956 14.90894743059463 BIRD-J 1 42820U 98067MU 18206.89622185 +.00020771 +00000-0 +17827-3 0 9999 2 42820 051.6334 163.7310 0002167 342.7144 017.3779 15.69342194059958 BIRD-G 1 42821U 98067MV 18206.89868382 +.00019753 +00000-0 +17417-3 0 9994 2 42821 051.6335 164.5009 0002274 343.8336 016.2587 15.68719279059921 BIRD-M 1 42822U 98067MW 18206.87352190 +.00020316 +00000-0 +17682-3 0 9999 2 42822 051.6335 164.3366 0002296 347.6765 012.4175 15.69016745059928 BIRD-B 1 42823U 98067MX 18206.93063780 +.00020649 +00000-0 +17867-3 0 9995 2 42823 051.6344 163.9885 0004737 353.5078 006.5857 15.69141114059936 BIRD-N 1 42824U 98067MY 18206.89659253 +.00020764 +00000-0 +18142-3 0 9992 2 42824 051.6347 164.5292 0004688 353.0079 007.0852 15.68899590059927 TechnoSat 1 42829U 17042E 18206.82271835 +.00000119 +00000-0 +17540-4 0 9994 2 42829 097.5930 107.7145 0015796 072.8385 287.4562 14.90840258056080 TOMSK-TPU 120 1 42910U 98067MZ 18206.89711422 +.00014686 +00000-0 +14962-3 0 9997 2 42910 051.6333 169.7412 0005983 006.0177 354.0889 15.65359994053444 TANYUSHA 1 1 42911U 98067NA 18206.91724040 +.00016761 +00000-0 +16210-3 0 9995 2 42911 051.6341 168.4134 0005497 003.8708 356.2330 15.66551478053443 TANYUSHA 2 1 42912U 98067NB 18206.93462165 +.00015545 +00000-0 +15468-3 0 9998 2 42912 051.6359 169.2625 0005250 015.0447 345.0704 15.65905433053454 SFERA 2 1 42913U 98067NC 18206.91018884 +.00043322 +00000-0 +27856-3 0 9990 2 42913 051.6332 159.2535 0004368 040.7277 319.4049 15.75743288053580 TNS 0-2 1 42914U 98067ND 18206.94723317 +.00013804 +00000-0 +14208-3 0 9997 2 42914 051.6347 170.1229 0005151 009.2914 350.8176 15.65166920053411 QIKCOM-1 1 42983U 98067NF 18206.92573213 +.00002734 +00000-0 +44710-4 0 9991 2 42983 051.6386 182.7972 0004197 351.6893 008.4028 15.56483670042259 AO-91 1 43017U 17073E 18206.80022648 +.00000326 +00000-0 +30788-4 0 9991 2 43017 097.7074 136.3258 0260416 145.6607 216.1750 14.78113694036811 EcAMSat 1 43019U 98067NG 18206.40166137 +.00004596 +00000-0 +68119-4 0 9995 2 43019 051.6383 184.5518 0004664 323.9661 036.1016 15.57423686124503 PICSAT 1 43132U 18004X 18206.88146726 +.00000945 +00000-0 +43581-4 0 9998 2 43132 097.5315 269.6615 0009036 332.0157 028.0592 15.22734994029608 AO-92 1 43137U 18004AC 18206.86842707 +.00000849 +00000-0 +39399-4 0 9998 2 43137 097.5310 269.6719 0008618 334.5470 025.5340 15.22790102029609 TianYi 2 1 43155U 18008A 18206.85509367 +.00000238 +00000-0 +18217-4 0 9991 2 43155 097.5225 280.6734 0018434 017.5770 122.5678 15.10617758028324 Zhou Enlai 1 43156U 18008B 18206.84818785 +.00000289 +00000-0 +21639-4 0 9996 2 43156 097.5272 280.6213 0015507 015.2415 077.4066 15.10081743028315 TianYi 6 1 43158U 18008D 18206.82436052 +.00001022 +00000-0 +67081-4 0 9996 2 43158 097.5226 280.4209 0014563 010.6367 121.7840 15.09786123028286 S-Net G 1 43186U 18014G 18206.80372465 +.00000026 +00000-0 +74332-5 0 9990 2 43186 097.7220 114.7795 0011726 028.9843 331.2027 14.96472169026090 S-Net H 1 43187U 18014H 18206.80362482 +.00000022 +00000-0 +70454-5 0 9996 2 43187 097.7218 114.7756 0011723 029.0158 331.1713 14.96473038026090 S-Net J 1 43188U 18014J 18206.80352686 +.00000020 +00000-0 +68944-5 0 9991 2 43188 097.7220 114.7812 0011718 029.0798 331.1074 14.96473835026096 S-Net K 1 43189U 18014K 18206.80365909 +.00000023 +00000-0 +71796-5 0 9996 2 43189 097.7217 114.7746 0011714 029.0356 331.1515 14.96472666024645 FMN 1 1 43192U 18015A 18206.93623386 +.00001577 +00000-0 +69902-4 0 9991 2 43192 097.3606 335.0391 0017316 012.3978 347.7676 15.22946311026411 Shaonian Xing 1 43199U 18015H 18206.96215820 +.00001117 +00000-0 +49163-4 0 9998 2 43199 097.3385 334.7988 0018465 024.3944 335.8158 15.23788308026449 1KUNS-PF 1 43466U 98067NP 18206.96433949 +.00009251 +00000-0 +13533-3 0 9992 2 43466 051.6382 184.5509 0000602 046.9071 313.1971 15.56375530011734 UBAKUSAT 1 43467U 98067NQ 18206.96844160 +.00006673 +00000-0 +10051-3 0 9991 2 43467 051.6383 184.5802 0001960 287.6244 072.4533 15.56116399011742 Irazu 1 43468U 98067NR 18206.95701584 +.00011367 +00000-0 +16307-3 0 9999 2 43468 051.6379 184.5019 0000736 055.0695 305.0366 15.56644467111725 OBJECT NU 1 43546U 98067NU 18206.97222250 +.00008682 +00000-0 +13553-3 0 9992 2 43546 051.6409 185.3357 0005663 343.6329 016.4474 15.54673282001865 OBJECT NV 1 43547U 98067NV 18206.97223089 +.00008966 +00000-0 +13972-3 0 9994 2 43547 051.6392 185.3452 0006196 349.1286 010.9559 15.54670694001540 OBJECT NW 1 43548U 98067NW 18206.97262938 +.00004690 +00000-0 +76864-4 0 9991 2 43548 051.6409 185.3448 0006149 001.9082 358.1906 15.54561872001999 OBJECT NX 1 43549U 98067NX 18206.97258069 +.00004713 +00000-0 +77175-4 0 9994 2 43549 051.6406 185.3449 0006159 001.8823 358.2188 15.54569098001554 OBJECT NY 1 43550U 98067NY 18206.97198947 +.00010403 +00000-0 +16071-3 0 9994 2 43550 051.6398 185.3374 0005933 017.0678 343.0469 15.54711834002023 EnduroSat One 1 43551U 98067NZ 18206.97082689 +.00008159 +00000-0 +12702-3 0 9992 2 43551 051.6403 185.3321 0006727 008.9069 351.1975 15.54839754001964 EQUISat 1 43552U 98067PA 18206.97071302 +.00006994 +00000-0 +10993-3 0 9998 2 43552 051.6414 185.3326 0006544 009.9289 350.1787 15.54839195001930 OBJECT PB 1 43553U 98067PB 18206.97066701 +.00005790 +00000-0 +92268-4 0 9995 2 43553 051.6403 185.3293 0007259 009.9549 350.1564 15.54832223001988 OBJECT PC 1 43554U 98067PC 18206.97054278 +.00008445 +00000-0 +13104-3 0 9993 2 43554 051.6398 185.3291 0007262 009.6888 350.4203 15.54877439001506 /EX
